Weather History for Jefferson, NC

Change the Weather History Date:

Monday, January 22, 2001

  Actual Average Record
Temperature  
Mean Temperature 27 °F -  
Max Temperature 35 °F 41 °F 63 °F (1967)
Min Temperature 19 °F 21 °F -1 °F (1970)
Degree Days  
Heating Degree Days 38    
Moisture  
Dew Point 11 °F    
Average Humidity 53    
Maximum Humidity 74    
Minimum Humidity 36    
Precipitation  
Precipitation 0.00 in - - ()
Sea Level Pressure  
Sea Level Pressure 30.30 in    
Wind  
Wind Speed 1 mph (SE)    
Max Wind Speed 7 mph    
Max Gust Speed -    
Visibility 10 miles    
Events      
Averages and records for this station are not official NWS values.
T = Trace of Precipitation, MM = Missing Value Source: NWS Daily Summary

Daily Weather History Graph

Daily Weather History Graph

Search for Another Location

Airport:

Trip Planner

Search our weather history database for the weather conditions in past years. The results will help you decide how hot, cold, wet, or windy it might be!

Date:

Astronomy

Jan. 22, 2001 Rise Set
Actual Time 7:33 AM EST 5:41 PM EST
Civil Twilight 7:06 AM EST 6:09 PM EST
Nautical Twilight 6:34 AM EST 6:40 PM EST
Astronomical Twilight 6:04 AM EST 7:11 PM EST
Moon 6:13 AM EST (1/22) 4:09 PM EST (1/22)
Length of Visible Light 11h 03m
Length of Day
10h 07m
Waning Crescent, 3% of the Moon is Illuminated
Jan 22
Waning Crescent
Jan 24
New
Feb 1
First Quarter
Feb 8
Full
Feb 14
Last Quarter

Hourly Weather History & Observations

Time (EST) Temp. Windchill Dew Point Humidity Pressure Visibility Wind Dir Wind Speed Gust Speed Precip Events Conditions
12:17 AM 21.2 °F - 3.2 °F 46% 30.29 in 10.0 mi Calm Calm - N/A   Clear
12:37 AM 21.2 °F - 3.2 °F 46% 30.30 in 10.0 mi Calm Calm - N/A   Clear
12:57 AM 21.2 °F - 3.2 °F 46% 30.29 in 10.0 mi Calm Calm - N/A   Clear
1:17 AM 21.2 °F - 3.2 °F 46% 30.28 in 10.0 mi Calm Calm - N/A   Clear
1:37 AM 23.0 °F - -0.4 °F 36% 30.28 in 10.0 mi Calm Calm - N/A   Clear
1:57 AM 21.2 °F - 3.2 °F 46% 30.28 in 10.0 mi Calm Calm - N/A   Clear
2:17 AM 21.2 °F - 5.0 °F 50% 30.28 in 10.0 mi Calm Calm - N/A   Clear
2:37 AM 19.4 °F - 6.8 °F 58% 30.28 in 10.0 mi Calm Calm - N/A   Clear
2:57 AM 19.4 °F - 8.6 °F 63% 30.29 in 10.0 mi Calm Calm - N/A   Clear
3:17 AM 21.2 °F - 6.8 °F 54% 30.29 in 10.0 mi Calm Calm - N/A   Clear
3:37 AM 21.2 °F - 6.8 °F 54% 30.29 in 10.0 mi Calm Calm - N/A   Clear
3:57 AM 19.4 °F - 10.4 °F 68% 30.29 in 10.0 mi Calm Calm - N/A   Scattered Clouds
4:17 AM 21.2 °F - 6.8 °F 54% 30.28 in 10.0 mi Calm Calm - N/A   Mostly Cloudy
4:37 AM 21.2 °F - 5.0 °F 50% 30.29 in 10.0 mi Calm Calm - N/A   Scattered Clouds
4:57 AM 19.4 °F - 12.2 °F 74% 30.29 in 10.0 mi Calm Calm - N/A   Mostly Cloudy
5:17 AM 19.4 °F - 12.2 °F 74% 30.29 in 10.0 mi Calm Calm - N/A   Overcast
5:37 AM 19.4 °F 14.3 °F 10.4 °F 68% 30.29 in 10.0 mi NNW 3.5 mph - N/A   Mostly Cloudy
5:57 AM 19.4 °F 14.3 °F 8.6 °F 63% 30.29 in 10.0 mi North 3.5 mph - N/A   Clear
6:17 AM 19.4 °F 14.3 °F 10.4 °F 68% 30.31 in 10.0 mi SSW 3.5 mph - N/A   Clear
6:37 AM 19.4 °F - 10.4 °F 68% 30.31 in 10.0 mi Calm Calm - N/A   Clear
6:57 AM 19.4 °F - 8.6 °F 63% 30.31 in 10.0 mi Calm Calm - N/A   Scattered Clouds
7:17 AM 19.4 °F - 8.6 °F 63% 30.31 in 10.0 mi Calm Calm - N/A   Scattered Clouds
7:37 AM 19.4 °F 14.3 °F 8.6 °F 63% 30.32 in 10.0 mi SSW 3.5 mph - N/A   Clear
7:57 AM 21.2 °F - 5.0 °F 50% 30.33 in 10.0 mi Calm Calm - N/A   Clear
8:17 AM 21.2 °F - 6.8 °F 54% 30.34 in 10.0 mi Calm Calm - N/A   Clear
8:37 AM 21.2 °F - 10.4 °F 63% 30.34 in 10.0 mi Calm Calm - N/A   Clear
8:57 AM 21.2 °F - 14.0 °F 74% 30.34 in 10.0 mi Calm Calm - N/A   Clear
9:17 AM 23.0 °F - 12.2 °F 63% 30.34 in 10.0 mi Calm Calm - N/A   Clear
9:37 AM 26.6 °F - 17.6 °F 69% 30.35 in 10.0 mi Calm Calm - N/A   Clear
9:57 AM 26.6 °F - 14.0 °F 59% 30.36 in 10.0 mi Calm Calm - N/A   Clear
10:17 AM 28.4 °F - 14.0 °F 55% 30.36 in 10.0 mi Calm Calm - N/A   Clear
10:37 AM 32.0 °F 28.7 °F 14.0 °F 48% 30.36 in 10.0 mi SSE 3.5 mph - N/A   Clear
10:57 AM 32.0 °F 26.4 °F 15.8 °F 51% 30.36 in 10.0 mi SSE 5.8 mph - N/A   Clear
11:17 AM 32.0 °F 26.4 °F 17.6 °F 55% 30.35 in 10.0 mi SE 5.8 mph - N/A   Clear
11:37 AM 32.0 °F 27.5 °F 14.0 °F 48% 30.35 in 10.0 mi SE 4.6 mph - N/A   Clear
11:57 AM 32.0 °F 27.5 °F 14.0 °F 48% 30.34 in 10.0 mi SE 4.6 mph - N/A   Clear
12:17 PM 32.0 °F 26.4 °F 14.0 °F 48% 30.33 in 10.0 mi SE 5.8 mph - N/A   Clear
12:37 PM 33.8 °F 29.6 °F 14.0 °F 44% 30.33 in 10.0 mi SE 4.6 mph - N/A   Clear
12:57 PM 33.8 °F 30.8 °F 14.0 °F 44% 30.32 in 10.0 mi ESE 3.5 mph - N/A   Clear
1:17 PM 35.6 °F 32.8 °F 14.0 °F 41% 30.31 in 10.0 mi SE 3.5 mph - N/A   Clear
1:37 PM 35.6 °F 29.9 °F 15.8 °F 44% 30.30 in 10.0 mi East 6.9 mph - N/A   Clear
1:57 PM 35.6 °F 32.8 °F 14.0 °F 41% 30.29 in 10.0 mi SE 3.5 mph - N/A   Clear
2:17 PM 35.6 °F 32.8 °F 14.0 °F 41% 30.29 in 10.0 mi ESE 3.5 mph - N/A   Clear
2:37 PM 35.6 °F - 14.0 °F 41% 30.28 in 10.0 mi Calm Calm - N/A   Clear
2:57 PM 35.6 °F - 14.0 °F 41% 30.28 in 10.0 mi Calm Calm - N/A   Clear
3:17 PM 35.6 °F - 14.0 °F 41% 30.28 in 10.0 mi Calm Calm - N/A   Clear
3:37 PM 33.8 °F 29.6 °F 15.8 °F 48% 30.28 in 10.0 mi SSE 4.6 mph - N/A   Clear
3:57 PM 32.0 °F 28.7 °F 14.0 °F 48% 30.28 in 10.0 mi SSE 3.5 mph - N/A   Clear
4:17 PM 32.0 °F 28.7 °F 15.8 °F 51% 30.29 in 10.0 mi SSE 3.5 mph - N/A   Clear
4:37 PM 32.0 °F - 14.0 °F 48% 30.28 in 10.0 mi Calm Calm - N/A   Clear
4:57 PM 32.0 °F - 17.6 °F 55% 30.29 in 10.0 mi Calm Calm - N/A   Clear
5:17 PM 32.0 °F - 19.4 °F 60% 30.28 in 10.0 mi Calm Calm - N/A   Clear
5:37 PM 32.0 °F - 15.8 °F 51% 30.28 in 10.0 mi Calm Calm - N/A   Clear
5:57 PM 32.0 °F - 15.8 °F 51% 30.29 in 10.0 mi Calm Calm - N/A   Clear
6:17 PM 32.0 °F - 14.0 °F 48% 30.29 in 10.0 mi Calm Calm - N/A   Clear
6:37 PM 32.0 °F - 14.0 °F 48% 30.29 in 10.0 mi Calm Calm - N/A   Clear
6:57 PM 32.0 °F - 14.0 °F 48% 30.29 in 10.0 mi Calm Calm - N/A   Clear
7:17 PM 32.0 °F 27.5 °F 14.0 °F 48% 30.29 in 10.0 mi NW 4.6 mph - N/A   Clear
7:37 PM 32.0 °F 28.7 °F 14.0 °F 48% 30.29 in 10.0 mi NW 3.5 mph - N/A   Clear
7:57 PM 32.0 °F - 14.0 °F 48% 30.29 in 10.0 mi Calm Calm - N/A   Clear
8:17 PM 32.0 °F - 15.8 °F 51% 30.29 in 10.0 mi Calm Calm - N/A   Clear
8:37 PM 28.4 °F 24.6 °F 14.0 °F 55% 30.28 in 10.0 mi North 3.5 mph - N/A   Clear
8:57 PM 30.2 °F - 15.8 °F 55% 30.29 in 10.0 mi Calm Calm - N/A   Clear
9:17 PM 28.4 °F - 15.8 °F 59% 30.29 in 10.0 mi Calm Calm - N/A   Clear
9:37 PM 28.4 °F - 17.6 °F 64% 30.29 in 10.0 mi Calm Calm - N/A   Clear
9:57 PM 28.4 °F - 17.6 °F 64% 30.29 in 10.0 mi Calm Calm - N/A   Clear
10:17 PM 26.6 °F 22.6 °F 17.6 °F 69% 30.28 in 10.0 mi SSW 3.5 mph - N/A   Clear
10:37 PM 28.4 °F 24.6 °F 17.6 °F 64% 30.28 in 10.0 mi South 3.5 mph - N/A   Clear
10:57 PM 26.6 °F - 17.6 °F 69% 30.28 in 10.0 mi Calm Calm - N/A   Clear
11:17 PM 28.4 °F - 17.6 °F 64% 30.27 in 10.0 mi Calm Calm - N/A   Clear
11:37 PM 28.4 °F - 14.0 °F 55% 30.25 in 10.0 mi Calm Calm - N/A   Clear
11:57 PM 26.6 °F - 17.6 °F 69% 30.23 in 10.0 mi Calm Calm - N/A   Clear